Regional Weather Roundup
Issued by NWS Wakefield, VA

Home | Current Version | Previous Version | Text Only | Print | Product List | Glossary Off
Versions: 1 2 3 4 5 6 7 8 9 10 11 12 13 14 15 16 17 18 19 20 21 22 23 24 25 26 27 28 29 30 31 32 33 34 35 36 37 38 39 40 41 42 43 44 45 46 47 48 49 50

000
ASUS41 KAKQ 182315
RWRAKQ

REGIONAL WEATHER ROUNDUP
NATIONAL WEATHER SERVICE WAKEFIELD VA
600 PM EST THU JAN 18 2018

Note: "fair" indicates few or no clouds below 12,000 feet with no
significant weather and/or obstructions to visibility. * = Denotes
station may not report precipitation (e.g., rain,snow,etc.),
thunder or fog.

VAZ042-051-052>054-056-190000-
NORTHERN VIRGINIA

CITY           SKY/WX    TMP DP  RH WIND       PRES   REMARKS
WASH NATIONAL  FAIR      44   3  18 NW5       30.07R
DULLES         FAIR      39   4  23 W6        30.06R
FORT BELVOIR   FAIR      38  11  32 CALM      30.07R
QUANTICO       CLEAR     40  11  30 SW3       30.08R
FREDERICKSBRG* FAIR      40  15  37 SW9       30.07R
STAFFORD*      FAIR      39   9  28 SW3       30.11R
WARRENTON      FAIR      31   6  35 CALM      30.05S
CULPEPER*      FAIR      38   7  27 SW3       30.07R
MANASSAS*      FAIR      33  12  41 CALM      30.07R
LEESBURG*      FAIR      41   7  24 N5        30.07R
WINCHESTER     FAIR      36   5  27 NW13      30.07R
FRONT ROYAL*   FAIR      37  12  35 SE5       30.03R
LURAY*         FAIR      32  16  51 CALM      30.05R
$$

VAZ048-049-060>072-079>083-190000-
CENTRAL AND SOUTH CENTRAL VIRGINIA

CITY           SKY/WX    TMP DP  RH WIND       PRES   REMARKS
RICHMOND       FAIR      36  15  42 SW9       30.11R
CHESTERFIELD*  NOT AVBL
PETERSBURG*    FAIR      34  14  44 SW7       30.14S
HANOVER        FAIR      37  14  38 SW8       30.11S
TAPPAHANNOCK*  FAIR      37  13  36 SW5       30.09S
QUINTON*       FAIR      36  16  43 SW3       30.11R
CHARLOTTSVILLE FAIR      38  11  32 S9        30.05R
GORDONSVILLE*  FAIR      35  13  39 CALM      30.07R
ORANGE*        FAIR      37  12  35 CALM      30.06R
LOUISA*        FAIR      37  10  33 SW8       30.12R
BUMPASS*       FAIR      36   9  33 S3        30.08S
FARMVILLE*     FAIR      37  14  39 SW7       30.11S
CREWE*         FAIR      35  13  40 SW3       30.13S
FORT PICKETT*  FAIR      31  13  47 SW7       30.14S
CHASE CITY*    FAIR      32  16  51 CALM      30.16R
CLARKSVILLE*   FAIR      32  18  55 SW6       30.17S
SOUTH HILL*    FAIR      29  21  74 SW6       30.22S
LAWRENCEVILLE* FAIR      30  19  61 SW5       30.16S
EMPORIA*       FAIR      32  21  64 S5        30.19F
$$

VAZ088>098-190000-
SOUTHEAST VIRGINIA

CITY           SKY/WX    TMP DP  RH WIND       PRES   REMARKS
NORFOLK        FAIR      34  21  59 SW15G21   30.13R WCI  24
VIRGINIA BEACH FAIR      41  18  39 W15       30.13R
NORFOLK NAVAL  FAIR      35  21  56 SW14      30.15R
WEST POINT*    FAIR      37  17  43 SW10      30.13R
SALUDA*        FAIR      36  15  43 SW3       30.09S
NEWPORT NEWS   FAIR      35  22  58 W15       30.13R
LANGLEY AFB    FAIR      34  22  61 SW17      30.13R WCI  24
FORT EUSTIS    CLEAR     35  22  58 SW8       30.11R
WILLIAMSBURG*  FAIR      37  21  52 SW7       30.14R
HR EXEC AP*    FAIR      32  21  64 W9        30.16R
FRANKLIN*      FAIR      32  20  62 SW5       30.18R
US460-WAKEFLD  FAIR      34  21  59 SW8       30.15R
$$

VAZ020-022-025-037-045-190000-
WEST CENTRAL AND SOUTHWEST VIRGINIA

CITY           SKY/WX    TMP DP  RH WIND       PRES   REMARKS
STAUNTON*      FAIR      35  11  37 S5        30.07R
WAYNESBORO*    FAIR      37   7  28 SW12      30.05S
HOT SPRINGS VA FAIR      26   0  32 W23G31    30.02R WCI  11
LYNCHBURG      FAIR      36   7  29 SW7       30.11S
DANVILLE       FAIR      31  13  47 SW9       30.16F
SOUTH BOSTON*  FAIR      33  14  45 SW3       30.17S
MARTINSVILLE   FAIR      34   7  33 CALM      30.18F
ROANOKE        FAIR      36   8  31 W14       30.16S
BLACKSBURG     FAIR      32   5  32 W10G20    30.19R WCI  24
DUBLIN*        FAIR      29  13  51 SW8       30.19S
MARION*        FAIR      24   6  46 W16       30.23S WCI  11
HILLSVILLE*    FAIR      28   4  36 NW13      30.15S WCI  17
RICHLANDS*     FAIR      24  10  54 SW5       30.23R
WISE*          FAIR      27  14  59 SW6       30.23F
ABINGDON*      FAIR      26  10  50 W3        30.28S
$$

MDZ021>025-VAZ099-100-190000-
SOUTHERN MARYLAND AND THE DELMARVA PENINSULA

CITY           SKY/WX    TMP DP  RH WIND       PRES   REMARKS
PATUXENT RIVER CLEAR     36  14  40 SW8       30.07R
BAY BRIDGE APT FAIR      37  14  38 W6        30.06R
LEONARDTOWN    FAIR      34  12  40 SW5       30.08R
DOVER          FAIR      33  19  54 SW3       30.04R
GEORGETOWN     FAIR      34  11  38 SW3       30.06R
EASTON         CLEAR     34  14  44 S5        30.09R
CAMBRIDGE      CLEAR     34  10  37 SW3       30.07R
SALISBURY      FAIR      32  12  43 W5        30.06R
OCEAN CITY     FAIR      32  16  51 W5        30.07R
WALLOPS ISLAND FAIR      32  17  54 SW6       30.09R
ACCOMACK*      FAIR      32  18  57 SW7       30.09R
$$

NCZ012>017-030>032-190000-
NORTH CENTRAL AND EASTERN NORTH CAROLINA

CITY           SKY/WX    TMP DP  RH WIND       PRES   REMARKS
ROANOKE RAPIDS FAIR      30  23  74 SW8       30.19S
RALEIGH        FAIR      29  20  69 W5        30.21S
ELIZABETH CITY FAIR      33  22  63 W10       30.17R WCI  25
AHOSKIE*       FAIR      28  22  78 CALM      30.20S
EDENTON*       FAIR      35  23  60 W8        30.20R
CURRITUCK*     FAIR      32  19  58 SW10      30.16R WCI  24
KILL DEVIL HLS FAIR      32  21  65 MISG      30.15R
MANTEO         FAIR      33  18  54 W9G16     30.17R
CAPE HATTERAS  FAIR      35  24  64 W12G18    30.18R
TARBORO*       NOT AVBL
GOLDSBORO      FAIR      30  19  64 W10       30.22F WCI  21
WASHINGTON     FAIR      33  19  58 W7        30.22S
GREENVILLE     FAIR      32  21  64 W3        30.23S
NEW BERN       FAIR      32  19  58 W8        30.24R
WILMINGTON     FAIR      35  16  45 NW6       30.25F
$$

VAZ048-190000-
ELSEWHERE

CITY           SKY/WX    TMP DP  RH WIND       PRES   REMARKS
HARRISBURG PA  FAIR      32  14  47 N8        30.03R
BALTIMORE      FAIR      37   8  30 W10       30.04R
ANNAPOLIS      FAIR      42   7  23 W5        30.05R
ANDREWS AFB    FAIR      38   7  27 W8        30.05R
PHILADELPHIA   FAIR      33  10  38 NW10      30.05R WCI  25
HENDERSON NC   FAIR      25  13  61 SW6       30.17F
GREENSBORO     FAIR      31  13  47 SW7       30.18S
ROCKY MOUNT    NOT AVBL
$$

VAZ100-190000-
MARINE

STATION/POSITION TIME  TEMP    WIND        PRES    WAVE   SWELL
                       AIR SEA DIR/SP/G            HT/PER HT/PER
                 (UTC) (F)     (DEG/KT/KT) (MB)    (FT/S) (FT/S)
BRANDYWINE LGT   2242   36     270/ 10/ 10 1017.8R
CAPE MAY NJ      2248   32 31  260/  5/  5 1017.1R
LEWES DE         2248   35 32  260/  4/  5 1017.6R
15NM E FENWICK I 2250   38 40  280/ 14/ 17 1017.9R   3/10   2/10
OCEAN-CITY-INLET 2248   34 35  270/  5/  6 1018.6R
WACHAPREAGUE VA  2248   32 33  230/  5/  8 1018.9R
THOMAS POINT MD  2300   42 32  310/  4/  5   N/A
GOOSES REEF MD   2300   37 33  240/  8/  8 1018.4    1
COVE POINT MD    2248   38     250/  7/ 10 1018.7R
SOLOMONS ISLAND  2248   37 34  250/  8/ 10 1017.8R
BISHOPS HEAD MD  2248   34 32  230/  6/  7 1018.6R
PINEY POINT MD   2242          250/  4/  6   N/A
POTOMAC MD       2250   35     320/  6/  8 1017.8R
CAMBRIDGE MD     2248   36 32              1018.6R
LEWISETTA VA     2248   38 32  250/  8/ 10 1018.4R
RAPPAHANNOCK LGT 2248          220/ 11/ 12 1019.6R
STINGRAY PT      2300   35 34  250/  6/  6 1022.2    1
YORK RVR RNG VA  2248   36     250/ 13/ 15 1020.1R
YORKTOWN VA      2248   36 34  240/  9/ 12 1019.5R
DOMINION TERM VA 2248   35     260/ 14/ 18 1020.7R
KIPTOPEKE VA     2248      34  250/ 15/ 18   N/A
CAPE HENRY VA    2248   35     240/  8/ 12   N/A
WILLOUBY STN VA  2242          240/ 18/ 20 1019.9R
S CRANEY ISL VA  2248   34     240/  8/ 14 1020.4R
CAPE HENRY BUOY  2230      40                N/A     4/ 8
1ST LANDING BUOY 2300   35 35  260/ 16/ 19 1020.1    2/ 3
CAPE CHARLES BUO 2251      37                N/A     3/10   2/11
64NM E OF VA BCH 2250   41 58  270/ 19/ 23 1019.4R   7/ 6
DUCK PIER NC     2248   35 38  260/ 15/ 20 1020.5R
44100 DUCK FRF   2215      43                N/A     5/ 9   2/11
44056 DUCK FRF   2230      39                N/A     4/ 8   2/11
OREGON INLET NC  2242   35 38  250/ 10/ 14 1021.5R
HATTERAS NC      2248   37 41  280/ 16/ 21 1021.6R
DIAMOND SHLS NC  2300   40 42  290/ 19/ 23 1022.1
CAPE LOOKOUT NC  2300          290/ 15/ 19 1023.3R
$$



USA.gov is the U.S. government's official web portal to all federal, state and local government web resources and services.